Preview of NWS' New Version of Forecast
This preview is not operational and should not be used for support decisions.
Latest weather observations around

Merced Regional Airport (KMCE)

Using English Units (Switch to International System of Units)
Date/ Time (PST) Wind (mph) Vis. (mi) Weather Sky Cond. Temp (°F) Rel. Humidity Wind Chill (°F) Heat Index (°F) Pressure Precip. (in)
Air Dwpt 6 hour Altimeter (inHg) Sea level (inHg) 1 hr 3 hr 6 hr
Max Min
Feb 21 13:53 NW 20 10 Clear and Windy CLR 53 35     50%     29.67 29.67      
Feb 21 12:53 NNW 10 10 Mostly Clear FEW029 51 37     59%     29.68 29.68      
Feb 21 11:53 NNW 13 10 Partly Cloudy SCT025 49 38     66% 44   29.69 29.69      
Feb 21 10:53 NW 16 10 Mostly Cloudy BKN022 47 38     71% 40   29.7 29.7      
Feb 21 09:53 NW 14 10 Mostly Cloudy BKN016 44 38     79% 37   29.71 29.71      
Feb 21 09:44 NW 11 10 Mostly Cloudy BKN016 43 39     86% 37   29.71        
Feb 21 09:21 NNW 15 10 Mostly Cloudy SCT012 SCT017 BKN034 43 39     86% 36   29.71        
Feb 21 09:05 NNW 16 10 Mostly Cloudy BKN010 BKN037 42 39     89% 34   29.71        
Feb 21 08:53 NNW 16 10 Mostly Cloudy SCT009 BKN037 42 39     89% 34   29.71 29.71      
Feb 21 08:42 NW 13 10 Partly Cloudy FEW009 SCT041 42 40     92% 35   29.7        
Feb 21 07:53 NW 8 10 Cloudy BKN045 OVC050 39 37     93% 33   29.7 29.7      
Feb 21 06:53 NW 7 10 Partly Cloudy SCT039 34 33     96% 28   29.68 29.68      
Feb 21 05:53 NNW 6 10 Clear CLR 36 35     96% 31   29.68 29.68      
Feb 21 04:53 NNW 5 10 Mostly Cloudy BKN110 38 36     92% 34   29.67 29.67      
Feb 21 03:53 WNW 5 10 Mostly Clear FEW040 40 37     89% 37   29.66 29.66     0
Feb 21 02:53 Calm 10 Mostly Clear FEW070 38 37     97%     29.68 29.68      
Feb 21 01:53 Calm 10 Clear   40 38     93%     29.69 29.69      
Feb 21 00:53 Calm 10 Light Rain FEW028 OVC035 41 40     96%     29.7 29.7 0 0  
Feb 20 23:53 ESE 3 7 Cloudy BKN040 OVC050 38 37     97% 36   29.72 29.72      
Feb 20 22:53 SE 3 10 Mostly Cloudy BKN050 40 38     93% 38   29.72 29.72      
Feb 20 21:53 SE 3 10 Clear CLR 41 37     86% 39   29.73 29.73      
Feb 20 20:53 S 5 10 Mostly Clear FEW070 41 39     93% 38   29.74 29.74      
Feb 20 19:53 W 6 10 Cloudy BKN048 BKN060 OVC075 45 41     86% 42   29.74 29.75      
Feb 20 18:53 WSW 5 10 Clear   46 41     82% 44   29.75 29.75      
Feb 20 17:53 W 3 10 Cloudy FEW039 BKN047 OVC055 48 41     77% 47   29.76 29.76      
Feb 20 16:53 WSW 3 10 Mostly Clear FEW100 49 39     69% 48   29.77 29.78      
Feb 20 15:53 NE 6 10 Cloudy BKN049 BKN060 OVC090 52 38     59%     29.79 29.79      
Feb 20 14:53 NNE 3 10 Partly Cloudy FEW070 SCT080 54 37     53%     29.81 29.81      
Feb 20 13:53 Calm 10 Cloudy SCT042 BKN050 OVC070 53 38     56%     29.84 29.84      
Feb 20 12:53 Calm 10 Mostly Cloudy SCT039 BKN080 54 38     55%     29.88 29.88      
Feb 20 11:53 Calm 10 Mostly Cloudy FEW030 BKN100 52 39     61%     29.93 29.93      
Feb 20 10:53 SE 6 10 Clear CLR 49 39     69% 46   29.95 29.95      
Feb 20 09:53 SE 7 10 Clear CLR 46 39     76% 42   29.96 29.96      
Feb 20 08:53 ESE 7 10 Cloudy OVC045 42 37     82% 38   29.98 29.98      
Feb 20 07:53 E 5 10 Mostly Cloudy BKN042 40 37     89% 37   29.99 29.99      
Feb 20 06:53 ESE 7 10 Cloudy SCT049 OVC100 39 36     89% 34   29.98 29.98      
Feb 20 05:53 E 7 10 Cloudy SCT055 OVC095 39 35     86% 34   30 30      
Feb 20 04:53 ESE 6 10 Cloudy FEW047 OVC120 37 34     89% 32   30.02 30.01      
Feb 20 03:53 Calm 8 Mostly Cloudy BKN110 36 34     92%     30.05 30.04      
Feb 20 02:53 Calm 9 Clear CLR 36 34     92%     30.08 30.07      
Feb 20 01:53 SW 3 10 Clear CLR 35 32     88% 32   30.08 30.08      
Feb 20 00:53 ESE 6 9 Clear CLR 36 34     92% 31   30.09 30.09      
Feb 19 23:53 ESE 6 9 Clear CLR 34 32     92% 29   30.11 30.11      
Feb 19 22:53 ENE 5 10 Clear CLR 41 36     82% 38   30.14 30.14      
Feb 19 21:53 ESE 6 10 Clear CLR 39 36     89% 35   30.13 30.13      
Feb 19 20:53 Calm 10 Clear CLR 39 36     89%     30.14 30.14      
Feb 19 19:53 Calm 10 Clear   43 34     70%     30.14 30.14      
Feb 19 18:53 Calm 10 Clear CLR 45 33     63%     30.16 30.16      
Feb 19 17:53 Calm 10 Clear CLR 49 33     54%     30.14 30.14      
Feb 19 16:53 SW 3 10 Clear CLR 51 34     52%     30.16 30.16      
Feb 19 15:53 Calm 10 Clear CLR 51 36     56%     30.16 30.16      
Feb 19 14:53 W 3 10 Mostly Cloudy BKN042 52 37     57%     30.16 30.16      
Feb 19 13:53 Calm 10 Clear CLR 52 37     57%     30.18 30.18      
Feb 19 12:53 SSE 5 10 Clear CLR 50 38     63%     30.2 30.21      
Feb 19 11:53 5 10 Clear CLR 49 36     61% 47   30.22 30.22      
Feb 19 10:53 Calm 10 Clear CLR 44 35     70%     30.24 30.24      
Feb 19 09:53 Calm 10 Clear CLR 42 34     73%     30.24 30.24      
Feb 19 08:53 N 5 10 Clear CLR 38 34     85% 34   30.22 30.22      
Feb 19 07:53 Calm 10 Clear CLR 32 31     96%     30.2 30.2      
Feb 19 06:53 Calm 10 Clear CLR 30 29     96%     30.18 30.19      
Feb 19 05:53 Calm 10 Clear CLR 31 29     92%     30.18 30.18      
Feb 19 04:53 Calm 10 Clear CLR 30 29     96%     30.17 30.17      
Feb 19 03:53 Calm 10 Clear   32 29     88%     30.17 30.17      
Feb 19 02:53 E 3 10 Clear CLR 30 28     92% 27   30.18 30.18      
Feb 19 01:53 Calm 10 Clear CLR 33 30     88%     30.19 30.19      
Feb 19 00:53 Calm 10 Clear CLR 34 30     85%     30.19 30.19      
Feb 18 23:53 Calm 10 Clear CLR 37 30     76%     30.19 30.19      
Feb 18 22:53 W 5 10 Clear CLR 37 31     78% 33   30.19 30.19      
Feb 18 21:53 NW 6 10 Clear CLR 42 31     64% 38   30.19 30.19      
Feb 18 20:53 NW 10 10 Clear CLR 44 32     62% 39   30.18 30.18      
Feb 18 19:53 NW 9 10 Clear CLR 45 32     60% 40   30.17 30.17      
Feb 18 18:53 WNW 6 10 Clear CLR 47 32     56% 44   30.16 30.16      
Feb 18 17:53 NW 6 10 Clear CLR 46 32     58% 43   30.15 30.15      
Feb 18 16:53 NW 9 10 Clear CLR 51 32     48%     30.14 30.14      
Feb 18 15:53 NNW 13 10 Clear CLR 53 30     41%     30.15 30.15      
Feb 18 14:53 NNW 10 10 Clear CLR 53 34     48%     30.16 30.16      
Feb 18 13:53 NW 10 10 Clear CLR 51 36     56%     30.17 30.17      
May 14 17:53 NW 5 10 Clear   79 48     34%   78 29.86 29.85      
May 13 21:53   10 Clear CLR 66 50     56%     29.92 29.92      
May 13 20:53 NNW 11 10 Clear CLR 69 51     53%     29.9 29.9      
May 12 18:53 WSW 10 10 Clear CLR 74 48     40%   73 29.8 29.8      
May 11 22:53 NW 11 10 Clear CLR 67 39     36%     29.69 29.68      
May 11 08:53 NW 13 10 Clear CLR 64 51     63%     29.8 29.8      
Jun 12 03:53 Calm 10 Clear CLR 51 43     74%     30.03 30.02      
Jun 12 02:53 NW 3 10 Clear CLR 49 43     80% 48   30.02 30.01      
Jun 10 15:53 WNW 14 10 Clear CLR 77 40     26%   76 29.86 29.86      
Jun 10 08:53 NW 17 10 Clear CLR 62 42     48%     29.94 29.93      
Jun 08 13:53 NNW 13 10 Cloudy OVC080 71 41     34%   69 30 29.99      
Jun 07 09:53 NNW 9 10 Clear CLR 78 40     26%   77 29.86 29.85      
Jun 07 06:53 NNW 3 10 Clear CLR 62 45     53%     29.84 29.84